| time (UTC) | temp F | wind direction | speed MPH | gust MPH | rain 1hr in | rain 24hr in | rain mn in | humidity % | barometer mb |
| 20260504044604 | 65 | 194 | 10.0 | 15.0 | 0.00 | 0.00 | 0.00 | 62 | 1014.8 |
| 20260504043056 | 65 | 181 | 9.0 | 13.0 | 0.00 | 0.00 | 0.00 | 62 | 1014.7 |
| 20260504041554 | 66 | 224 | 7.0 | 10.0 | 0.00 | 0.00 | 0.00 | 62 | 1014.7 |
| 20260504040056 | 65 | 222 | 5.0 | 8.0 | 0.00 | 0.00 | 0.00 | 62 | 1014.8 |
| 20260504040052 | 65 | 359 | 5.0 | 8.0 | 0.00 | 0.00 | 0.00 | 62 | 1014.8 |
| 20260504034531 | 66 | 177 | 5.0 | 10.0 | 0.00 | 0.00 | 0.00 | 62 | 1014.9 |
| 20260504033025 | 66 | 181 | 7.0 | 10.0 | 0.00 | 0.00 | 0.00 | 62 | 1015.0 |
| 20260504033018 | 66 | 185 | 7.0 | 10.0 | 0.00 | 0.00 | 0.00 | 62 | 1015.0 |
| 20260504031515 | 66 | 187 | 3.0 | 10.0 | 0.00 | 0.00 | 0.00 | 62 | 1015.1 |
| 20260504030013 | 66 | 168 | 6.0 | 12.0 | 0.00 | 0.00 | 0.00 | 62 | 1015.3 |
| 20260504024518 | 66 | 202 | 5.0 | 10.0 | 0.00 | 0.00 | 0.00 | 62 | 1015.5 |
| 20260504023012 | 65 | 187 | 4.0 | 9.0 | 0.00 | 0.00 | 0.00 | 62 | 1015.3 |
| 20260504021509 | 65 | 206 | 5.0 | 9.0 | 0.00 | 0.00 | 0.00 | 62 | 1015.4 |
| 20260504020014 | 66 | 200 | 8.0 | 12.0 | 0.00 | 0.00 | 0.00 | 62 | 1015.4 |
| 20260504014505 | 66 | 187 | 6.0 | 10.0 | 0.00 | 0.00 | 0.00 | 62 | 1015.5 |
| 20260504013008 | 66 | 201 | 6.0 | 12.0 | 0.00 | 0.00 | 0.00 | 62 | 1015.5 |
| 20260504011600 | 66 | 181 | 5.0 | 9.0 | 0.00 | 0.00 | 0.00 | 61 | 1015.7 |
| 20260504010105 | 66 | 174 | 7.0 | 10.0 | 0.00 | 0.00 | 0.00 | 61 | 1015.7 |
| 20260504004601 | 66 | 189 | 6.0 | 10.0 | 0.00 | 0.00 | 0.00 | 61 | 1015.7 |
| 20260504003053 | 66 | 135 | 4.0 | 8.0 | 0.00 | 0.00 | 0.00 | 61 | 1015.9 |
| 20260504001606 | 66 | 186 | 5.0 | 9.0 | 0.00 | 0.00 | 0.00 | 61 | 1015.9 |
| 20260504000045 | 66 | 180 | 3.0 | 10.0 | 0.00 | 0.00 | 0.00 | 62 | 1016.0 |
| 20260503234542 | 66 | 222 | 7.0 | 12.0 | 0.00 | 0.00 | 0.00 | 62 | 1016.0 |
| 20260503233042 | 66 | 181 | 10.0 | 13.0 | 0.00 | 0.00 | 0.00 | 63 | 1016.1 |
| 20260503231539 | 66 | 176 | 4.0 | 11.0 | 0.00 | 0.00 | 0.00 | 63 | 1016.1 |
| 20260503230039 | 66 | 175 | 5.0 | 11.0 | 0.00 | 0.00 | 0.00 | 63 | 1016.1 |
| 20260503224538 | 67 | 190 | 5.0 | 8.0 | 0.00 | 0.00 | 0.00 | 63 | 1016.2 |
| 20260503223041 | 67 | 176 | 4.0 | 7.0 | 0.00 | 0.00 | 0.00 | 62 | 1016.2 |
| 20260503221541 | 66 | 142 | 6.0 | 8.0 | 0.00 | 0.00 | 0.00 | 62 | 1016.3 |
| 20260503220044 | 66 | 175 | 4.0 | 8.0 | 0.00 | 0.00 | 0.00 | 63 | 1016.4 |
| 20260503214536 | 66 | 175 | 4.0 | 7.0 | 0.00 | 0.00 | 0.00 | 64 | 1016.6 |
| 20260503213040 | 66 | 135 | 7.0 | 9.0 | 0.00 | 0.00 | 0.00 | 65 | 1016.6 |
| 20260503211507 | 66 | 130 | 7.0 | 10.0 | 0.00 | 0.00 | 0.00 | 65 | 1016.6 |
| 20260503210003 | 66 | 143 | 7.0 | 10.0 | 0.00 | 0.00 | 0.00 | 65 | 1016.6 |
| 20260503204534 | 66 | 171 | 6.0 | 11.0 | 0.00 | 0.00 | 0.00 | 65 | 1016.5 |
| 20260503203036 | 66 | 96 | 7.0 | 10.0 | 0.00 | 0.00 | 0.00 | 65 | 1016.4 |
| 20260503201502 | 65 | 102 | 8.0 | 10.0 | 0.00 | 0.00 | 0.00 | 65 | 1016.3 |
| 20260503200004 | 65 | 94 | 9.0 | 12.0 | 0.00 | 0.00 | 0.00 | 65 | 1016.1 |
| 20260503194533 | 65 | 88 | 7.0 | 10.0 | 0.00 | 0.00 | 0.00 | 65 | 1015.9 |
| 20260503193035 | 65 | 87 | 8.0 | 11.0 | 0.00 | 0.00 | 0.00 | 65 | 1015.7 |
| 20260503191529 | 65 | 88 | 8.0 | 11.0 | 0.00 | 0.00 | 0.00 | 65 | 1015.3 |
| 20260503190028 | 65 | 83 | 4.0 | 11.0 | 0.00 | 0.00 | 0.00 | 65 | 1015.2 |
| 20260503184529 | 65 | 65 | 8.0 | 12.0 | 0.00 | 0.00 | 0.00 | 64 | 1014.9 |
| 20260503183035 | 66 | 81 | 8.0 | 12.0 | 0.00 | 0.00 | 0.00 | 64 | 1014.8 |
| 20260503181623 | 66 | 95 | 8.0 | 12.0 | 0.00 | 0.00 | 0.00 | 63 | 1014.8 |
| 20260503180134 | 66 | 78 | 7.0 | 12.0 | 0.00 | 0.00 | 0.00 | 63 | 1014.6 |
| 20260503174557 | 66 | 116 | 9.0 | 12.0 | 0.00 | 0.00 | 0.00 | 63 | 1014.4 |
| 20260503173059 | 66 | 93 | 8.0 | 13.0 | 0.00 | 0.00 | 0.00 | 63 | 1014.2 |
| 20260503171553 | 66 | 112 | 8.0 | 13.0 | 0.00 | 0.00 | 0.00 | 63 | 1014.2 |
| 20260503081600 | 65 | 110 | 4.0 | 9.0 | 0.00 | 0.00 | 0.00 | 63 | 1018.3 |